sat.trackr.live / text

‹ back to catalog

STARLINK-5588

NORAD 55375 · 2023-013AW

PAYLOAD ACTIVE UNKNOWN

§ Identity

Operator
Country
US
Launch date
2023-01-26
Launch site
AFETR
Launch vehicle
Mass (kg)
RCS (m²)

Purposes: comms

External: N2YO · Heavens-Above · Gunter

§ Orbital elements

Epoch: 2026-09-20T19:16:31.862784Z

Period
94.27 min
Inclination
43.0023°
Eccentricity
0.0001244
Mean motion
15.27573818 rev/d
Perigee alt
482.2 km
Apogee alt
483.9 km
Semi-major
6,861.2 km
B*
3.2795e-5
RAAN
299.6030°
Arg perigee
279.9385°
Mean anomaly
80.1326°
Rev number
20,130

§ Raw data

STARLINK-55881 55375U 23013AW  26263.80314656  .00000640  00000+0  32795-4 0  99952 55375  43.0023 299.6030 0001244 279.9385  80.1326 15.27573818201305

JSON: /api/v1/satellites/55375 · /tle

For live sub-satellite position, see the globe view (requires WebGL).

§ Visibility from observer

Set your observer location to see the next 7 days of passes ≥ 10°. The values pass through the URL so the page stays shareable.

No JS? Fill the form by hand. The geolocation button needs JavaScript.